Regional Weather Roundup
Issued by NWS Grand Forks, ND

Home | Current Version | Previous Version | Text Only | Print | Product List | Glossary Off
Versions: 1 2 3 4 5 6 7 8 9 10 11 12 13 14 15 16 17 18 19 20 21 22 23 24 25 26 27 28 29 30 31 32 33 34 35 36 37 38 39 40 41 42 43 44 45 46 47 48 49 50

000
ASUS43 KFGF 011131
RWRFGF
PRAIRIE TO PINES  WEATHER ROUNDUP
NATIONAL WEATHER SERVICE EASTERN NORTH DAKOTA/GRAND FORKS ND
600 AM CDT MON SEP 01 2014

 **SATELLITE DATA USED TO AUGMENT SKY COVER AT AUTOMATED STATIONS**
 *****  WEATHER ACROSS EASTERN NORTH DAKOTA  *****

CITY           SKY/WX    TMP DP  RH WIND       PRES   REMARKS
GRAND FORKS    MOCLDY    52  50  93 SW3       29.66F
GRAND FRKS AFB PTCLDY    53  53  99 NW7       29.68S
GRAND FRKS NWS   N/A     52 N/A N/A MISG        N/A
DEVILS LAKE    CLEAR     55  48  76 W7        29.69S
FARGO          MOCLDY    53  51  93 CALM      29.69R
WAHPETON ARPT  PTSUNNY   54  50  87 NW7       29.70S
$$

 ***** WEATHER ACROSS CENTRAL AND WESTERN NORTH DAKOTA  *****

CITY           SKY/WX    TMP DP  RH WIND       PRES   REMARKS
BISMARCK       CLEAR     52  51  97 W5        29.78S
MINOT          CLEAR     52  49  89 SW9       29.73S
JAMESTOWN      CLEAR     56  54  93 W6        29.73S
MINOT AFB      MOCLDY    50  50  99 NW7       29.72F
GARRISON         N/A     48  47  96 W5        29.75F
WILLISTON      CLEAR     48  45  89 SW6       29.81R
DICKINSON      CLEAR     51  46  83 W9        29.79S
HETTINGER      CLEAR     46  44  93 NW7       29.84F
$$

 *****  OTHER AIRPORT OBSERVATIONS IN OUR AREA  *****

CITY           SKY/WX    TMP DP  RH WIND       PRES   REMARKS
WALHALLA       FAIR      54  54 100 CALM      29.67S
GRAFTON AIRPOR FAIR      52  52 100 W6        29.67S
VALLEY CITY AR FAIR      54  54 100 W8        29.73S
CANDO          FAIR      48  48 100 W3        29.70F
CAVALIER APRT  FAIR      50  50 100 W5        29.66S
GWINNER        SUNNY     55  55 100 NW7       29.73S
ROLLA          FAIR      50  50 100 W5        29.70F
 ***** THE ABOVE OBSERVATIONS ARE NON NWS ARE NOT QUALITY
       CONTROLLED AND MAY MIS-REPORT RAIN FOR SNOW...
$$

  *****  WEATHER ACROSS NORTHERN MINNESOTA  *****

CITY           SKY/WX    TMP DP  RH WIND       PRES   REMARKS
FLAG ISLAND    CLOUDY    61  57  88 NW15      29.59S
WARROAD        CLOUDY    57  54  88 W8        29.64R
ROSEAU         MOCLDY    59  54  82 W8        29.64S
HALLOCK        PTCLDY    54  52  94 CALM      29.66S FOG
THF RVR FALLS  CLOUDY    57  55  94 NW9       29.67S
BAUDETTE       CLOUDY    59  56  89 NW6       29.60S
WASKISH        CLOUDY    61  57  88 W9        29.63S
CROOKSTON      MOCLDY    52  52 100 NW3       29.68S FOG
$$
  *****  WEATHER ACROSS CENTRAL AND WEST MINNESOTA  *****

CITY           SKY/WX    TMP DP  RH WIND       PRES   REMARKS
FOSSTON        CLOUDY    55  55 100 NW8       29.67F
BEMIDJI        CLOUDY    57  56  97 W6        29.66R
PARK RAPIDS    MOCLDY    55  55 100 W6        29.66S
ELBOW LAKE     FAIR      56  55  97 NW6       29.69S
WADENA         MOCLDY    57  55  94 NW3       29.67S
DETROIT LAKES  CLOUDY    55  55 100 NW7       29.69S
MOORHEAD       MOCLDY    55  55 100 CALM      29.70S
FERGUS FALLS   MOCLDY    54  54 100 NW7       29.69S
MORRIS MN      CLOUDY    61  59  94 NW6       29.68S
STAPLES        MOCLDY    57  57 100 W5        29.66F
$$
  *****  WEATHER ELSEWHERE ACROSS MINNESOTA  *****

CITY           SKY/WX    TMP DP  RH WIND       PRES   REMARKS
DULUTH         LGT RAIN  64  62  93 NW6       29.59S
INTRNTL FALLS  CLOUDY    59  57  94 W8        29.58R
ELY            CLOUDY    59  57  94 W7        29.56F
CLOQUET        CLOUDY    63  61  94 W3        29.62R
WHEATON        MOCLDY    55  54  94 W3        29.72R
BRAINERD       MOCLDY    61  59  93 W5        29.65R
HIBBING        CLOUDY    60  57  89 NW8       29.60F
ALEXANDRIA     CLOUDY    62  61  96 W7        29.69S
SAINT CLOUD    CLOUDY    67  64  90 NW6       29.65R
MINNEAPOLIS    MOCLDY    65  64  97 W7        29.63F
$$

  *****  WEATHER ACROSS SOUTH DAKOTA  *****

CITY           SKY/WX    TMP DP  RH WIND       PRES   REMARKS
SIOUX FALLS    LGT RAIN  63  60  90 W6        29.72S
BROOKINGS      NOT AVBL
WATERTOWN      CLOUDY    62  61  96 W7        29.73S
HURON          PTCLDY    58  57  97 W6        29.75R
SISSETON         N/A     57  56  96 NW3       29.70S
ABERDEEN       PTCLDY    54  54 100 CALM      29.74R
MITCHELL       CLEAR     60  59  96 W7        29.76S
PIERRE         CLEAR     54  52  93 SW8       29.81R
MOBRIDGE       PTCLDY    53  52  96 N6        29.78R
RAPID CITY     CLEAR     51  45  79 W6        29.90S
$$

  *****  SOME WEATHER IN NEARBY STATES *****

CITY           SKY/WX    TMP DP  RH WIND       PRES   REMARKS
GLASGOW MT     CLEAR     47  45  93 N6        29.84S
GREAT FALLS MT PTCLDY    47  39  74 SW8       29.94S
CHEYENNE WY    PTCLDY    44  40  85 W6        30.07S
SCOTTSBLUFF NE CLEAR     48  47  96 SW3       30.00R
OMAHA NE       PTCLDY    68  64  87 W3        29.74R
DES MOINES IA  CLOUDY    70  63  78 SW14      29.73R
DAVENPORT IA   CLOUDY    66  64  93 W18G25    29.78R
CHICAGO IL     CLOUDY    74  68  81 S9        29.77F
EAU CLAIRE WI  HVY RAIN  65  64  97 W6        29.64F FOG
LA CROSSE WI   CLOUDY    66  62  87 S7        29.64R
$$

  *****  SOME NATIONAL WEATHER *****

CITY           SKY/WX    TMP DP  RH WIND       PRES   REMARKS
LA GUARDIA NY  CLOUDY    76  71  85 S3        30.00R
RALEIGH NC     MOCLDY    74  71  91 SW6       30.11R
ATLANTA GA     CLOUDY    75  69  81 CALM      30.13R
NEW ORLEANS LA MOCLDY    80  76  87 CALM      30.02R
OKLAHOMA CITY  PTCLDY    78  69  73 S21G26    29.80R
ALBUQUERQUE NM CLEAR     66  40  38 SE6       30.08S
SALT LAKE CITY CLEAR     57  40  52 SE8       30.00S
LOS ANGELES CA PTCLDY    70  64  83 E5        29.80F
BOISE ID       CLEAR     53  43  68 CALM      30.04R
SEATTLE WA     PTCLDY    58  52  80 CALM      30.08R
$$

*** WEATHER ACROSS MANITOBA...SASKATCHEWAN AND ONTARIO ***
                ***ONTARIO***

CITY           SKY/WX    TMP DP  RH WIND       PRES   REMARKS
GERALDTON      SHOWER   N/A N/A N/A SW12        N/A  VSB 1
THUNDER BAY    LGT RAIN  63  63 100 E5        29.51F
SIOUX LOOKOUT  DRIZZLE   59  57  94 NW8       29.50S FOG
TORONTO        CLOUDY    68  64  88 SE5       29.96F
BIG TROUT LK   CLOUDY    55  54  94 E7        29.49F
PICKLE LAKE    CLOUDY    59  55  88 S9        29.45
DRYDEN         CLOUDY    57  57 100 W8        29.54S
KENORA         DRIZZLE   57  57 100 NW6       29.59R
$$
                *** MANITOBA***

CITY           SKY/WX    TMP DP  RH WIND       PRES   REMARKS
BRANDON        PTCLDY    48  48 100 W7        29.69F
DAUPHIN        CLEAR     52  50  93 W10       29.65S
ISLAND LAKE    CLOUDY    55  55 100 CALM      29.55S
PILOT MOUND      N/A     46  46 100 W3          N/A
THE PAS        PTCLDY    54  50  87 NW6       29.59S
THOMPSON       PTCLDY    41  41 100 W3        29.54
WINNIPEG       PTCLDY    50  50 100 W6        29.65S
LYNN LAKE      CLEAR     46  43  87 MISG      29.57F
CHURCHILL      FOG       52  52 100 SW3       29.51S VSB 1/2
GILLAM         CLOUDY    55  55 100 CALM      29.52S FOG
$$
                ***SASKATCHEWAN***

CITY           SKY/WX    TMP DP  RH WIND       PRES   REMARKS
ESTEVAN        CLOUDY    54  52  94 W3        29.79
KINDERSLEY     CLEAR     39  37  93 S2        29.81S
LLOYDMINSTER   CLEAR     43  41  93 W12       29.76S
PRINCE ALBERT  MOCLDY    46  45  93 W6        29.69R
REGINA         CLEAR     46  46 100 W6        29.77
YORKTON        CLOUDY    52  48  87 SW7       29.71S
N. BATTLEFORD  CLEAR     37  36  93 VRB2      29.78R
LA RONGE       CLOUDY    50  48  93 W6        29.66S
SASKATOON      PTCLDY    41  39  93 W6        29.76S
SWIFT CURRENT  MOCLDY    45  41  87 SW10      29.83S
$$
NOTE: THESE ARE AUTOMATED STATIONS WITH LIMITED QUALITY CONTROL
      "FAIR" INDICATES FEW OR NO CLOUDS BELOW 12,000 FEET WITH NO
      SIGNIFICANT WEATHER AND/OR OBSTRUCTIONS TO VISIBILITY.
      SKY/WX - SKY CONDITION AND SIGNIFICANT WEATHER.
      TMP - AIR TEMPERATURE.    DP   - DEWPOINT TEMPERATURE.
      RH  - RELATIVE HUMIDITY.  PRES - PRESSURE.
      HX  - HEAT INDEX.         WCI  - WIND CHILL INDEX.
$


USA.gov is the U.S. government's official web portal to all federal, state and local government web resources and services.